OBJECT J, 64884

Orbit data source: Space-Track

You're viewing an Uncataloged Satellite

Recently launched and/or uncataloged satellites may have evolving metadata. Metadata may include but not limited to: Owner, Maufacturer, Bus, Motor, and Mission.

OBJECT J, 64884 is a satellite in SSO that was launched on Fri, 25 Jul 2025 UTC via a SOYUZ-2-1B launch vehicle from the Vostochny Cosmodrome (VOSTO). Unknown objects in Earth's orbit typically refer to objects detected orbiting the Earth but have not yet been identified or cataloged. These objects could be anything from previously untracked satellites, spent rocket stages, debris from satellite collisions, or even natural meteoroids temporarily captured by Earth's gravity.

Loading next visibility...
Identifier
64884, 2025-155J
Orbit
SSO
Country
Flag of TBDTBD
Related business
None
Manufacturer
SPUT/GEOSK
Mission
Operational spacecraft
Bus & Motor
CUBESAT 3U, Unknown motor
Mass
3 kg wet, 3 kg dry
Launch date (UTC)
2025-07-25 (1 month ago)
Launch vehicle
SOYUZ-2-1B
Launch site
Vostochny Cosmodrome (VOSTO)
Object type
Unknown
Shape & HBR
Unknown
Radar Cross Section
Small (<0.1 m²)

Expand to show TLE details & history
Last TLE update: 8 hours ago

TLE from 8 hours ago
0 OBJECT J
1 64884U 25155J   25242.92347947  .00013782  00000-0  59624-3 0  9998
2 64884  97.4178 207.6661 0010425 117.7723 242.4572 15.22508129 36488
Epoch: 2025-08-30T22:09Z
TLE epoch observation values (Epoch: 2025-08-30T22:09:48.626Z)
Latitude
0.00002°
Longitude
-104.13732°
Altitude
504.693 km
Speed
7.61 km/s
True Right ascension
13h 50m 39s
True Declination
0° 00' 00"
Sunlit
Object was in daylight at epoch
Visualization orbit readout
Latitude
Unknown
Longitude
Unknown
Altitude
Unknown
Speed
Unknown
Apparent Right ascension
Unknown
Apparent Declination
Unknown
Sunlit
N/A
Visualization observer readout
Local Sidereal Time
21:43:46
Azimuth
Unknown
Elevation
Unknown
Doppler factor
Unknown
Orbital elements
Apogee altitude
502.407 km
Perigee altitude
488.076 km
Semi-major axis
6,873.378 km
Eccentricity
0.00104
Inclination
97.4178°
RAAN
207.6661°
Arg. of periapsis
117.7723°
True anomaly
242.35134°
Mean anomaly
242.4572°
Eccentric anomaly
242.40426°
Mean motion
3.8088 °/min
Orbital period
94.52 mins
BSTAR
0.00059624
Loading maneuver chart data...
Computing Atmospheric mass density...
Loading historical data...
Loading historical data...
Loading historical data...
Loading historical data...
Loading historical data...
Loading historical data...
Loading historical data...

Documentation

Showing up to 5 results
|